Theta_e
339 336 339 337 337 340 341 340 338 338 338 338 337 336 335 333 331 330 329 327 327 327 327 328 329 328 328 329 330 332 333 334 335 335 334 335 336 334 333 333 333 332 331 330 329 327 326 325 326 328 329 329 326 320 316 313 314 318 319 317 315 315 315 315 314 315 315 315 315 315 315 314 314 314 314 314 313 314 314 314 314 315 315 314 315
339 336 337 337 337 339 340 339 339 338 338 338 337 336 334 331 330 331 330 328 328 328 328 329 329 328 328 329 330 332 333 334 334 335 334 335 335 334 331 330 329 328 327 327 327 326 324 324 325 324 325 324 321 319 317 314 313 317 317 314 314 314 314 314 314 314 315 315 315 314 314 315 314 314 314 314 314 314 314 314 314 314 315 315 314
339 337 336 336 336 338 339 340 338 338 338 338 337 336 333 331 331 331 330 329 328 329 329 330 330 327 325 327 329 331 333 334 334 334 334 333 331 329 326 325 323 322 322 321 322 323 323 324 325 324 322 322 319 317 317 315 312 315 316 312 313 314 314 314 313 315 315 315 315 315 315 315 314 314 314 313 314 313 314 314 314 314 314 314 314
339 338 336 333 332 336 338 339 339 338 338 338 337 337 333 330 332 332 330 329 329 330 330 331 331 328 324 325 327 329 331 332 333 333 330 327 326 326 325 325 324 322 321 321 322 321 321 321 322 324 322 321 319 316 315 314 312 314 314 311 313 314 314 314 314 315 315 315 315 315 315 314 315 314 314 314 314 313 314 314 313 314 313 314 313
339 339 337 333 329 331 336 339 339 339 338 338 338 337 333 330 332 332 330 329 329 330 330 331 332 331 326 324 326 328 329 329 330 329 324 323 326 327 327 327 327 325 323 322 323 322 320 319 320 326 324 319 317 315 314 312 312 313 311 311 313 313 313 314 314 314 314 315 315 315 314 314 314 314 314 314 314 314 313 314 313 314 313 314 313
339 339 338 335 331 328 331 336 337 339 339 338 338 337 334 331 332 332 331 330 329 330 330 331 331 332 331 327 326 327 329 328 328 327 325 326 327 328 328 328 328 327 325 324 323 321 319 316 320 327 323 317 316 313 313 311 311 311 311 312 313 314 314 315 314 313 314 315 315 315 315 314 314 314 314 314 314 314 313 314 313 314 314 314 314
339 339 339 337 334 328 328 333 336 338 339 338 338 338 335 331 332 333 332 331 330 329 330 330 330 330 331 330 328 326 326 327 329 330 330 330 330 330 329 328 328 328 327 327 325 319 317 315 321 327 320 315 314 311 311 309 310 310 311 313 314 315 314 315 314 313 313 314 314 315 314 314 314 314 314 314 314 314 314 314 314 313 314 313 313
339 340 339 338 334 329 327 331 335 337 338 339 338 339 337 332 331 332 332 332 331 329 330 329 330 329 329 331 331 329 327 327 330 331 331 332 331 331 330 329 328 329 328 329 327 320 315 315 319 323 318 313 312 309 310 309 310 312 313 314 313 314 313 314 312 311 313 314 314 314 315 314 314 314 314 314 314 314 314 314 313 313 313 313 313
340 340 340 339 334 330 328 331 335 336 337 338 338 338 338 335 330 331 332 332 332 330 330 329 329 329 329 329 330 330 329 329 331 331 332 332 331 331 330 329 327 327 328 329 329 322 315 314 316 321 318 311 310 309 309 310 311 313 313 314 313 312 312 311 310 310 311 313 314 314 314 314 314 314 314 314 314 313 314 314 313 313 313 313 313
340 340 340 338 335 331 328 330 333 335 337 338 339 339 338 337 332 330 331 332 332 331 330 330 329 329 328 328 327 328 330 331 331 332 333 333 331 330 330 329 327 326 327 328 330 323 316 314 314 322 321 311 312 315 315 314 312 314 314 314 314 312 311 309 309 310 310 311 313 314 314 314 314 314 314 314 313 313 314 313 313 313 313 313 313
340 340 339 337 336 331 327 329 331 333 336 338 339 339 339 339 335 331 330 331 331 331 331 330 330 329 328 328 327 326 329 331 331 333 333 333 332 331 330 328 327 325 326 328 329 325 320 318 316 320 322 318 320 322 319 315 313 316 317 316 314 313 311 310 310 309 310 310 311 313 313 314 314 314 314 313 313 313 313 313 313 313 313 313 313
339 340 339 338 335 330 328 329 330 332 335 337 339 340 340 339 338 334 330 330 331 331 331 331 330 330 329 328 328 326 328 330 330 331 332 332 332 331 330 327 327 325 325 328 329 327 324 323 322 323 322 322 323 323 319 316 315 317 318 318 316 314 313 312 311 310 310 311 311 312 312 313 314 313 314 313 313 313 313 313 313 313 313 314 314
340 340 339 337 335 332 330 330 330 332 336 338 338 340 340 340 339 337 333 330 331 331 330 330 331 331 329 328 328 327 327 326 327 329 329 328 329 330 328 327 326 324 323 326 328 327 326 324 324 325 322 320 320 320 320 318 316 317 320 321 318 315 313 313 313 311 310 310 310 311 311 312 313 313 313 313 313 313 313 313 313 313 314 314 314
339 339 338 335 336 335 331 330 330 331 335 338 339 339 340 340 339 339 337 333 331 332 331 330 330 331 330 328 327 327 327 326 326 327 327 325 326 326 327 327 326 325 322 324 328 327 326 325 324 326 323 319 318 318 321 319 315 317 322 322 319 316 313 312 313 312 310 309 310 310 310 311 313 314 313 314 313 314 313 313 313 313 314 314 314
339 339 337 335 337 338 334 330 330 330 332 335 337 337 337 337 338 339 338 336 333 332 332 331 330 331 331 329 327 326 327 326 326 327 326 324 324 325 326 326 324 325 322 322 327 326 325 324 324 327 326 322 320 321 323 321 318 319 323 323 320 318 314 312 313 313 310 309 309 310 310 309 311 313 313 314 313 314 314 314 314 314 314 314 314
339 339 336 334 337 338 335 330 329 328 329 331 332 334 335 335 336 338 338 338 336 333 333 333 331 330 330 330 329 327 327 327 327 326 325 323 323 323 324 323 322 323 322 321 324 326 325 323 323 326 328 326 322 323 325 323 321 321 323 323 319 318 317 314 313 312 312 311 309 310 310 309 310 312 314 314 314 314 313 313 314 314 314 313 313
339 338 335 335 336 336 334 330 329 327 327 327 328 331 334 335 336 336 337 337 336 334 333 333 331 330 330 330 330 328 328 327 327 327 324 323 322 322 323 321 321 322 321 319 320 325 327 324 322 322 325 327 325 324 325 325 321 319 323 324 320 318 319 318 316 313 313 312 309 309 309 309 310 311 313 314 314 314 312 313 313 313 313 312 312
338 336 335 336 336 335 332 331 330 328 327 326 326 327 331 334 334 335 335 336 336 335 334 333 332 330 330 330 329 330 329 326 326 326 324 323 321 321 322 320 319 320 320 318 317 323 326 325 323 321 319 322 326 325 325 327 323 319 320 323 323 321 321 320 318 315 313 312 309 308 308 308 309 310 311 313 313 313 312 311 313 312 312 312 311
338 336 336 337 336 335 334 332 331 330 330 328 327 326 327 329 329 332 333 334 335 335 334 331 330 330 329 330 330 330 328 326 327 326 323 322 319 318 322 320 319 320 319 318 317 319 324 326 325 323 319 316 322 327 326 327 326 321 320 322 324 323 321 320 318 316 315 311 309 309 308 308 308 308 309 310 310 311 311 310 311 311 311 311 311
337 336 337 338 337 336 335 335 333 332 332 331 330 328 327 327 326 329 332 334 334 334 333 330 329 328 328 328 330 329 326 326 326 322 320 319 316 317 321 322 321 320 319 320 320 319 321 326 326 324 323 317 318 327 327 327 327 323 321 321 324 325 321 320 319 317 315 311 309 309 309 308 307 308 308 309 308 309 310 309 310 311 311 311 310
337 337 337 338 338 337 337 336 334 334 334 333 332 331 330 328 328 330 331 333 333 333 331 329 328 328 328 327 326 324 322 325 324 320 319 317 316 317 321 322 322 320 321 323 323 321 319 324 327 325 326 321 318 327 329 327 328 326 324 323 322 325 324 321 320 318 315 311 310 309 308 308 307 307 307 308 308 308 309 309 309 310 310 310 310
337 338 337 339 338 338 338 335 331 333 335 333 333 333 333 331 330 331 330 331 333 332 331 329 327 328 329 326 322 319 322 325 324 321 321 321 321 321 322 322 322 322 323 325 324 323 320 322 326 327 327 324 320 326 329 328 328 327 326 325 322 325 326 324 322 320 318 314 312 310 309 307 306 306 306 307 307 307 308 308 309 309 310 310 310
337 338 338 338 337 336 335 332 329 331 332 331 332 332 333 332 332 331 330 331 331 331 330 328 327 328 326 323 318 320 325 327 326 324 323 325 326 325 324 323 323 323 323 324 323 322 321 322 325 327 328 326 323 324 328 329 329 328 327 325 324 324 326 325 323 322 323 319 316 314 310 307 306 306 306 306 306 306 307 307 308 308 310 309 309
336 336 336 334 332 331 329 329 329 329 330 330 330 330 331 332 332 332 331 331 330 329 329 326 328 327 324 321 318 320 325 326 327 327 326 328 330 328 325 325 324 324 324 324 323 321 320 322 324 325 327 328 326 324 325 329 330 328 327 327 326 325 326 327 323 323 325 323 320 318 314 310 307 307 306 306 306 306 307 307 307 307 308 308 307
332 331 331 329 328 328 327 327 328 329 329 329 330 330 330 330 331 331 331 331 330 329 328 326 327 327 325 323 319 319 324 324 326 328 329 330 330 329 326 324 325 325 324 323 324 322 318 320 323 324 325 327 328 326 324 327 329 327 327 327 327 325 326 327 324 322 324 324 322 321 318 313 310 309 307 306 306 306 307 307 307 306 306 306 306
328 328 327 326 324 324 324 323 325 326 327 328 329 330 329 329 329 330 330 331 331 329 329 328 328 328 328 325 319 318 322 324 327 328 329 330 329 329 326 323 324 324 323 324 325 322 317 317 321 323 323 324 327 328 325 325 327 327 326 327 328 327 326 326 324 323 324 324 323 321 319 316 313 311 309 307 306 306 306 307 307 307 306 306 306
326 326 323 322 320 319 319 319 320 321 322 325 326 328 329 329 328 328 330 331 331 328 327 328 329 330 328 326 322 320 322 324 327 327 329 331 328 326 326 322 322 324 323 324 324 319 315 315 318 320 322 321 324 328 327 325 325 324 325 327 328 327 326 325 324 324 324 324 322 320 318 317 315 313 311 309 307 307 306 306 307 307 306 306 306
324 323 321 319 318 318 319 319 319 318 319 319 319 321 325 328 328 327 329 332 330 325 323 325 327 328 326 326 325 323 323 325 327 329 329 331 328 324 324 321 321 323 323 324 322 317 314 314 315 316 320 320 321 326 328 326 324 322 323 327 328 327 326 324 323 323 323 322 321 319 318 316 315 314 312 310 309 308 307 306 306 306 306 306 306
322 320 319 319 319 318 319 320 320 319 318 317 316 315 318 326 328 327 329 331 330 324 319 321 323 324 325 326 327 325 324 326 329 331 330 330 329 324 322 320 320 322 322 324 322 318 315 313 314 315 318 319 320 325 328 326 325 321 322 327 328 327 325 324 324 323 321 320 318 318 317 316 315 314 314 312 311 310 308 307 306 306 306 306 306
320 320 320 319 318 317 318 320 320 320 319 318 317 316 316 321 327 328 329 330 331 325 319 321 324 325 325 324 325 325 325 328 330 332 331 331 329 325 320 318 320 322 323 324 321 321 319 315 316 318 318 319 321 325 327 325 324 321 321 326 328 326 325 324 322 322 320 318 316 315 315 316 315 314 314 313 312 311 310 309 308 307 306 306 306
320 320 319 318 317 316 317 319 319 319 319 319 318 318 316 319 323 327 329 330 331 328 322 322 324 325 326 324 323 323 326 329 331 333 333 331 329 326 322 319 320 322 323 324 321 323 324 319 319 322 322 323 323 324 324 324 323 321 321 325 328 326 325 324 322 322 320 318 316 315 315 317 318 316 315 314 313 313 312 311 310 309 309 308 307
319 319 319 317 315 315 315 317 318 318 318 318 318 318 318 319 321 324 327 330 330 330 327 325 324 324 324 324 324 324 326 329 331 332 332 331 330 328 327 325 323 322 323 324 322 323 325 324 322 323 325 325 325 323 323 322 323 322 321 323 326 326 325 324 323 322 321 319 318 317 318 320 321 320 318 316 315 314 314 314 313 313 312 311 311
319 319 318 316 314 314 314 315 315 316 316 316 318 319 320 321 321 322 325 329 330 330 329 328 327 324 322 322 325 326 327 328 329 330 330 330 329 328 328 328 326 323 323 324 324 323 324 325 325 324 325 326 326 325 324 322 321 323 322 323 325 326 325 324 323 321 320 319 319 320 320 321 322 321 319 318 317 316 316 317 317 316 315 314 313
320 320 318 316 315 314 313 313 312 313 313 314 317 320 321 322 323 324 325 327 329 329 329 330 329 327 325 323 324 326 327 327 328 328 328 329 328 327 327 327 328 325 324 324 324 324 324 325 325 325 325 326 326 325 325 324 322 322 322 322 323 323 323 322 321 320 320 321 321 322 322 323 323 322 322 321 320 320 319 320 320 318 318 316 315
320 320 318 317 315 314 313 312 311 311 312 314 317 319 321 322 323 323 324 324 326 326 327 328 328 328 328 326 325 326 327 328 328 326 326 328 328 327 326 327 328 327 327 326 325 325 324 325 326 326 326 326 326 326 325 325 324 322 321 320 320 321 322 321 321 322 322 323 324 324 325 326 325 325 325 325 324 324 323 323 323 321 321 320 318
320 320 318 317 316 314 312 312 311 310 312 314 316 318 320 321 321 321 321 321 322 322 323 324 325 326 327 327 327 328 328 329 329 327 325 326 327 327 328 328 328 329 329 329 328 328 326 324 325 326 327 327 328 328 326 326 325 324 323 323 323 323 324 324 324 323 324 324 325 325 326 326 326 326 326 326 326 326 325 325 325 325 324 323 321
320 320 318 317 316 314 312 311 310 309 310 311 312 315 316 316 316 317 318 319 320 320 321 321 322 323 323 324 324 325 327 328 329 328 326 326 327 327 328 328 329 329 328 329 330 330 327 325 325 326 327 327 328 328 328 327 326 325 325 324 325 325 326 326 326 325 325 325 324 323 323 323 323 325 326 327 327 326 326 326 326 326 326 325 323
320 319 318 317 316 314 311 310 309 308 308 308 309 309 309 310 311 312 313 316 318 319 320 320 320 321 321 321 322 322 324 326 327 327 327 327 327 327 327 328 328 329 329 329 330 330 329 327 327 326 326 327 327 328 328 328 327 326 326 325 325 326 326 327 327 327 327 326 325 323 322 322 323 324 325 327 328 328 327 327 327 327 326 326 325
320 319 319 317 315 313 311 310 309 308 307 307 306 306 306 307 307 307 309 312 315 316 317 317 318 318 318 318 319 319 321 323 323 324 325 325 326 328 329 329 329 330 330 330 331 331 330 329 328 327 327 328 328 328 328 328 327 327 328 326 325 326 326 327 328 328 328 327 326 324 324 323 323 323 322 322 324 327 328 328 328 327 327 327 325
320 318 318 317 315 312 311 310 310 308 307 306 306 306 306 305 305 305 307 308 310 310 310 310 310 310 311 311 311 313 314 317 319 320 320 321 324 326 327 328 328 329 330 329 328 329 330 330 329 328 329 328 326 326 326 326 327 327 328 327 326 326 326 327 328 328 328 328 327 326 325 325 324 324 322 319 319 322 325 328 328 328 327 327 325
319 318 318 317 315 312 311 311 310 309 308 307 306 306 306 305 306 307 306 306 306 306 306 306 306 306 306 306 306 307 307 308 311 314 316 317 319 321 323 325 327 327 328 328 327 328 330 331 329 327 328 326 324 325 326 324 325 327 328 327 327 327 326 327 328 328 329 328 329 328 327 326 325 324 323 322 321 319 320 324 327 328 328 327 325
319 319 318 317 315 313 311 312 311 310 308 307 307 307 307 307 308 307 306 306 306 306 306 306 306 306 305 305 304 304 303 304 304 306 310 312 315 319 320 322 324 324 325 326 327 329 331 332 330 327 326 326 324 324 325 325 325 326 326 327 327 327 327 327 328 328 328 329 329 329 329 328 326 324 324 324 324 323 320 320 323 325 327 326 325
319 319 318 317 315 314 312 312 311 310 308 308 308 308 309 308 308 308 307 306 307 307 307 306 306 306 305 305 304 303 303 302 302 303 306 308 310 315 319 320 320 321 322 323 324 326 328 330 331 329 328 327 325 324 323 325 326 326 325 326 327 328 327 328 328 328 328 329 329 329 329 329 327 325 325 324 324 324 323 322 321 321 323 325 325
318 318 318 317 316 315 314 314 313 310 309 308 309 310 309 308 308 308 308 308 308 308 307 307 307 307 306 306 305 305 303 302 302 302 303 305 307 311 316 319 320 320 321 321 322 323 324 325 326 328 329 328 327 325 325 326 328 327 326 326 327 328 328 328 328 328 329 329 329 329 329 329 328 326 326 325 325 324 324 324 323 321 322 323 324
318 319 318 318 317 316 315 315 313 310 310 310 310 311 309 308 308 308 309 309 308 308 308 308 307 307 307 306 306 306 305 303 303 303 303 305 307 309 312 315 316 317 317 318 319 320 321 321 322 324 325 325 326 327 327 327 328 328 327 327 327 328 328 328 328 328 328 329 328 328 328 328 328 327 326 326 326 325 325 325 325 324 324 324 324
319 319 318 318 317 316 316 316 314 311 310 310 311 311 310 308 308 308 308 309 308 308 308 308 308 308 308 307 306 306 306 305 303 304 305 305 306 307 309 310 310 310 310 311 312 314 316 318 320 321 321 322 323 324 325 326 327 327 327 327 327 327 326 326 327 328 328 328 327 327 327 327 327 327 327 327 327 326 326 325 325 325 326 326 326
319 319 318 318 317 316 316 317 315 312 310 311 311 311 311 309 308 308 308 309 308 308 309 309 308 308 308 307 307 306 306 305 304 304 304 305 305 306 307 308 307 307 307 307 308 310 312 314 317 318 319 320 321 321 322 324 325 326 326 326 326 325 325 326 327 327 328 327 327 327 326 327 327 327 327 327 327 326 326 327 327 327 327 327 327
319 319 319 318 318 317 317 317 316 312 311 311 311 311 311 310 308 308 309 309 308 309 309 309 309 308 308 308 307 306 306 305 305 304 304 304 304 305 306 307 308 308 308 308 308 310 312 313 314 315 316 317 317 317 318 320 322 323 324 324 324 324 324 325 326 326 326 326 326 326 326 327 326 326 326 325 325 325 326 326 327 328 328 328 328
319 319 319 318 318 317 317 317 317 314 312 311 311 311 311 310 308 308 309 309 309 309 309 310 309 309 309 308 307 306 306 306 305 305 304 304 303 303 304 305 305 305 304 305 305 306 307 309 310 312 314 314 315 314 313 314 315 316 318 319 320 321 321 323 324 325 325 324 325 325 325 325 325 325 325 325 325 325 325 325 326 327 328 329 329
319 319 318 318 318 317 317 317 317 315 313 312 311 310 310 310 309 308 309 310 310 309 310 310 310 310 309 308 307 307 306 306 306 305 305 305 304 304 303 304 303 303 303 303 302 303 303 303 304 306 308 311 313 313 313 313 312 312 312 312 312 314 316 318 320 322 323 322 323 323 323 323 323 323 324 323 324 325 325 325 325 326 328 329 329
319 319 318 318 318 318 317 317 316 316 315 313 312 310 310 310 309 308 309 310 310 310 310 310 310 310 310 309 308 307 307 306 306 306 305 305 304 304 304 304 304 304 303 303 303 303 302 302 302 302 303 305 307 308 310 311 312 312 312 311 311 311 312 314 317 319 320 321 322 322 322 321 320 320 320 320 320 321 323 325 326 327 327 328 329
Wind_Speed
19 17 16 16 16 17 18 17 17 16 15 13 13 13 12 12 11 9 8 8 8 9 11 12 14 15 16 16 16 16 17 17 17 17 16 15 15 15 14 14 13 12 11 9 8 8 8 9 8 9 9 9 8 6 6 6 7 7 8 10 12 13 12 12 13 13 14 14 15 15 15 16 16 16 17 18 18 18 18 19 19 18 19 19 19
21 18 17 16 16 17 18 17 17 16 15 14 14 13 13 13 12 10 9 8 9 10 11 12 13 15 16 16 16 16 17 17 17 17 16 15 15 14 13 12 11 10 9 8 8 7 7 8 7 7 8 10 9 7 6 6 6 7 7 10 12 12 12 12 12 12 13 14 14 14 14 14 14 15 15 16 17 17 16 17 18 17 17 18 17
21 19 17 16 16 16 17 18 17 17 16 15 14 14 14 14 12 11 10 9 9 10 11 12 13 15 16 16 17 17 17 16 16 16 15 15 14 13 12 11 10 9 8 7 6 7 7 7 7 7 8 9 10 9 7 6 6 6 6 10 13 13 11 11 12 12 13 14 13 13 13 13 13 13 14 15 16 15 15 14 15 15 16 15 15
20 19 17 16 16 16 16 17 18 17 16 16 15 15 15 15 13 12 10 10 10 11 11 12 13 14 15 16 16 17 16 16 15 15 15 15 14 14 13 12 10 9 8 7 6 6 6 7 8 9 9 9 11 10 8 7 7 7 6 10 14 13 11 10 11 11 12 13 12 12 12 12 12 12 13 14 14 14 13 12 13 13 13 13 13
20 19 17 15 15 15 16 17 18 17 17 16 16 15 16 16 14 13 11 10 11 12 12 12 13 14 15 16 16 16 15 15 15 14 15 14 13 12 12 11 10 9 8 7 7 6 6 7 9 11 11 11 11 11 10 9 9 9 7 11 14 14 12 10 10 10 12 13 13 12 12 12 11 11 11 12 13 12 11 10 11 11 11 11 12
20 19 17 15 14 15 16 17 18 18 17 16 16 15 17 17 15 14 13 12 12 13 12 13 13 13 14 15 15 15 14 14 14 15 14 13 12 10 10 10 10 9 8 7 7 7 7 7 10 12 12 13 13 12 11 10 10 10 9 12 15 14 13 11 10 11 12 13 13 13 12 11 11 11 10 10 11 11 10 9 9 9 9 10 10
20 18 16 15 13 14 15 16 17 18 18 17 16 15 16 17 16 15 14 13 12 13 13 13 13 12 12 13 14 14 14 14 14 14 14 13 11 11 10 9 9 9 8 8 7 7 7 7 9 12 14 14 14 14 13 12 12 12 11 13 15 15 13 12 12 13 13 11 12 13 12 11 11 10 10 9 9 9 8 8 8 8 8 8 8
19 17 15 14 14 13 14 16 17 18 19 18 17 16 16 17 17 16 15 14 13 14 14 13 13 12 11 12 14 13 13 14 15 13 13 12 11 10 10 9 9 8 8 8 7 6 7 7 9 12 14 16 16 15 15 15 14 14 13 14 16 16 14 14 15 15 14 11 11 13 13 12 11 10 10 9 8 8 8 7 7 7 7 7 7
19 17 15 14 14 14 14 16 17 18 18 18 18 17 17 18 18 17 16 15 14 14 14 14 13 12 11 11 12 12 13 13 13 12 12 12 11 10 10 9 9 8 8 8 8 6 7 7 8 12 14 16 17 17 17 16 16 16 15 15 17 18 17 16 17 16 14 12 11 12 13 12 12 11 10 9 8 7 7 7 7 6 6 6 6
19 17 15 14 14 14 14 15 18 19 18 18 18 19 18 19 19 18 17 16 15 14 14 14 13 13 11 11 10 10 11 12 12 11 11 11 10 10 9 9 9 9 8 8 9 7 7 7 9 12 14 16 17 17 17 17 18 18 17 16 16 18 19 18 17 17 15 13 12 11 12 12 12 12 11 10 8 7 7 7 7 6 5 5 5
20 18 16 14 14 14 15 14 17 18 17 17 18 19 19 19 20 19 18 17 16 15 15 14 13 13 11 11 11 9 9 10 11 11 10 10 9 9 9 8 9 9 9 9 10 8 7 8 8 10 12 15 16 16 17 18 19 19 19 17 16 17 19 18 17 16 16 15 13 12 12 12 12 12 12 11 9 8 7 7 7 6 5 4 4
20 18 16 14 14 14 14 14 15 17 17 16 17 18 19 20 20 20 20 18 17 16 15 14 13 12 11 10 10 10 9 8 9 10 10 10 9 9 9 8 8 8 9 9 10 9 8 8 9 9 10 14 16 17 18 18 20 20 20 18 17 16 17 18 17 17 16 16 15 13 12 12 12 12 12 12 11 9 8 8 7 6 5 4 3
20 18 15 14 14 13 14 14 14 16 17 16 16 17 17 19 20 21 21 20 19 17 16 15 13 11 10 10 10 10 10 9 8 10 10 10 10 10 9 9 8 8 8 9 10 10 9 8 9 10 9 13 16 17 17 18 20 21 20 19 18 16 16 17 16 16 16 16 16 15 14 12 12 12 12 12 11 10 9 8 7 6 4 3 2
20 18 15 14 14 12 12 13 14 16 16 16 16 16 16 17 18 19 20 21 20 19 17 15 13 11 10 9 9 10 10 10 9 9 9 10 11 10 11 10 9 9 8 9 10 10 11 10 10 11 10 10 13 14 15 16 19 21 19 18 18 16 15 15 15 14 14 15 15 16 15 13 12 13 12 12 11 10 9 8 7 6 4 3 2
19 17 15 15 14 13 12 12 13 14 15 15 16 15 15 16 17 18 19 20 20 19 17 16 14 12 10 9 8 9 10 10 9 9 9 9 9 10 11 10 9 9 8 8 10 10 11 11 11 11 10 9 9 11 11 13 16 19 19 18 17 17 15 14 14 13 13 13 14 14 15 13 12 13 14 13 12 11 10 9 7 6 5 3 2
18 17 14 14 14 14 13 12 12 12 13 13 13 14 14 15 16 16 17 19 21 19 17 16 14 13 11 10 9 8 8 9 9 9 9 8 9 9 9 9 8 8 8 7 9 11 11 12 13 12 12 10 9 9 10 10 13 17 18 17 17 16 15 14 13 12 11 11 12 12 13 13 13 13 15 14 13 12 11 10 8 7 5 4 3
18 16 13 13 13 12 12 12 12 12 12 11 11 12 13 14 15 15 16 18 20 20 18 16 15 15 13 13 12 10 8 8 9 8 7 7 8 8 8 8 8 8 7 7 7 10 11 12 14 14 14 12 11 10 10 9 10 14 16 16 16 16 16 14 12 11 10 9 9 9 10 12 12 12 14 15 15 14 13 11 9 8 6 5 4
17 16 13 11 12 11 11 11 11 11 11 10 10 10 12 13 14 14 14 15 17 19 20 18 16 15 14 14 13 12 10 10 9 8 8 7 7 7 8 7 6 7 7 7 8 10 13 13 14 15 15 15 14 12 10 9 8 10 12 14 14 14 15 14 12 10 9 8 7 7 7 8 9 10 10 12 13 13 13 11 10 8 6 5 4
17 16 13 11 11 10 10 10 11 11 10 10 9 10 10 11 12 12 12 13 15 18 19 18 15 13 13 13 13 13 12 11 9 9 10 8 6 7 8 7 6 6 6 7 8 10 13 15 16 15 15 16 16 14 12 10 9 8 10 12 12 12 14 14 12 10 9 7 6 6 5 5 5 5 6 7 8 8 9 9 8 7 6 5 4
17 16 13 11 12 11 10 10 10 10 10 10 10 10 10 10 11 11 11 12 15 16 17 16 15 14 13 12 13 14 12 11 10 10 10 7 6 7 7 7 7 6 6 6 6 9 13 16 17 17 15 15 17 16 13 11 10 9 8 9 11 11 11 13 12 10 9 8 6 6 5 5 3 2 2 4 5 4 5 5 5 5 5 4 4
17 16 13 11 12 12 11 9 9 9 10 10 10 10 10 11 10 10 10 12 15 15 16 16 15 15 12 11 13 13 11 11 10 9 7 5 4 6 7 7 7 6 5 5 5 7 12 16 18 18 15 15 18 19 15 13 11 10 9 8 9 9 9 10 12 11 9 8 7 6 5 5 4 3 2 3 4 4 4 4 4 4 4 3 3
18 17 15 13 12 12 11 9 9 9 10 9 9 9 9 10 10 9 9 12 15 15 16 15 14 14 13 13 12 10 11 10 9 7 6 5 4 5 7 7 7 6 4 3 3 7 11 16 18 18 17 15 18 20 18 15 13 12 10 9 8 8 8 8 10 11 9 8 8 7 6 5 5 4 3 3 4 4 5 5 4 3 3 3 2
18 18 16 14 13 12 11 10 9 9 10 9 9 9 9 9 9 9 10 12 14 14 14 13 14 14 14 14 11 10 10 9 8 8 7 7 5 5 6 7 6 5 4 2 2 6 10 15 18 19 19 16 17 19 20 17 15 14 12 10 8 8 8 8 8 9 9 8 7 7 6 6 5 4 4 4 5 5 6 6 5 4 4 3 2
18 18 17 16 14 13 11 10 9 9 10 9 10 10 10 11 10 11 11 13 13 14 14 13 14 14 14 13 11 10 9 8 9 9 8 8 7 7 7 7 6 5 3 2 1 5 9 15 18 20 20 18 17 18 20 20 17 15 14 11 9 8 9 8 7 6 7 6 6 6 6 6 5 4 4 4 5 6 7 7 7 6 5 4 4
18 18 17 15 14 12 10 9 9 9 9 8 10 10 11 12 12 12 12 13 13 13 13 13 14 14 13 11 11 11 9 8 8 8 8 8 8 9 8 7 7 5 3 2 3 4 8 14 18 19 19 20 19 18 19 20 19 17 14 12 10 9 9 8 7 6 5 5 5 5 4 4 4 3 3 4 4 5 6 8 8 7 7 6 5
18 17 16 14 12 11 9 8 7 7 7 7 8 8 10 11 12 13 13 14 14 12 14 15 14 14 14 11 9 10 10 9 8 7 7 8 8 10 9 8 8 6 4 3 4 4 6 13 18 19 18 20 21 19 18 20 20 18 15 13 11 10 9 8 7 7 6 4 4 3 3 3 3 3 2 3 3 3 4 7 8 8 8 7 6
17 15 13 11 8 8 7 7 6 5 5 5 6 6 8 10 12 14 14 14 14 12 13 15 14 13 14 13 10 8 9 10 9 7 6 8 10 10 9 9 8 7 6 5 5 5 5 11 16 19 19 19 22 21 18 18 20 19 17 14 12 11 10 8 8 7 6 4 3 3 3 3 3 2 2 2 3 3 3 4 6 7 8 8 7
15 13 11 8 5 4 4 5 5 4 4 5 5 6 8 10 12 15 15 16 15 12 12 14 14 14 14 13 11 9 9 11 10 9 9 10 11 12 11 10 9 8 8 6 5 5 4 9 14 18 19 19 21 22 19 17 19 19 18 16 13 12 10 9 8 7 6 5 4 4 4 3 3 3 2 2 2 2 2 2 3 5 6 7 7
13 10 8 6 3 1 2 3 3 4 4 4 5 6 8 10 12 14 15 16 15 12 12 14 14 14 15 14 13 12 12 13 12 11 12 12 13 14 14 13 11 10 9 7 5 3 2 8 13 15 17 17 19 20 19 17 17 18 19 17 15 13 12 10 9 9 7 6 6 5 5 4 4 3 3 3 3 3 3 3 2 2 4 5 6
12 9 7 4 2 1 2 2 3 4 4 5 4 5 8 10 12 14 15 15 14 12 13 13 14 14 15 15 15 15 14 14 14 14 13 12 14 16 15 14 13 12 10 7 6 3 3 8 13 14 15 15 16 17 17 16 15 17 19 18 17 15 13 12 10 9 9 8 7 7 6 6 6 5 5 5 5 6 5 5 4 3 3 4 5
12 8 5 2 0 1 2 4 4 5 5 5 5 4 6 9 11 13 14 13 13 14 13 13 15 14 15 16 15 16 15 15 17 16 12 11 15 16 15 15 15 13 11 8 8 6 5 8 12 14 14 14 13 14 16 15 14 15 19 20 18 17 16 14 12 11 10 10 10 9 8 8 7 6 6 6 6 7 7 7 6 6 5 5 5
10 6 3 0 2 3 3 5 5 6 6 5 4 3 4 7 9 11 13 12 12 14 15 14 15 14 14 15 15 16 15 16 18 16 10 7 13 16 16 16 15 14 13 11 10 10 8 8 11 14 14 13 13 12 13 15 15 14 18 21 20 20 18 17 15 13 12 11 11 10 9 8 7 6 6 6 7 7 8 8 7 7 6 6 6
8 6 3 1 1 2 3 5 6 7 6 5 3 2 3 4 6 8 10 10 10 12 13 13 14 13 13 14 14 15 14 16 15 11 8 6 10 15 16 16 15 14 14 13 12 12 12 10 10 12 13 12 11 10 10 12 14 14 16 20 22 21 20 19 16 15 12 11 11 11 9 8 7 7 7 7 7 7 8 8 7 7 7 7 7
9 8 6 4 3 2 3 5 6 7 6 4 2 2 3 4 4 6 7 8 9 10 10 9 10 11 13 14 15 15 14 15 13 8 7 7 10 12 13 15 16 15 15 14 14 14 13 12 10 10 11 11 10 9 9 10 12 13 15 18 19 20 19 17 14 13 11 10 10 10 9 8 8 8 8 8 8 8 8 7 7 7 7 7 7
13 11 9 9 6 3 3 5 5 5 4 3 2 3 4 5 5 6 7 8 8 9 9 8 8 9 10 12 14 15 13 13 13 11 8 7 9 12 12 14 16 16 16 15 15 14 14 14 13 11 10 10 9 9 9 10 11 12 14 15 16 16 14 12 11 10 9 9 9 8 8 9 9 9 9 9 9 9 9 8 7 6 6 6 6
15 14 13 12 8 5 4 4 3 3 3 3 3 4 5 6 6 7 8 9 9 9 8 8 8 8 8 11 13 14 14 13 12 11 9 8 10 11 12 14 16 18 18 18 17 17 17 16 15 14 13 12 11 11 12 12 13 14 15 15 16 15 13 11 9 8 8 8 8 8 8 8 9 9 9 10 10 10 9 9 8 7 6 5 5
17 17 16 13 10 8 5 3 2 2 2 3 3 4 5 5 6 8 9 10 10 9 7 7 7 6 6 7 9 11 12 12 11 10 10 11 11 11 12 13 16 19 20 19 20 21 19 17 17 16 15 15 14 14 15 15 16 16 16 17 17 16 15 12 10 9 9 8 8 8 8 8 8 9 10 10 10 10 10 9 9 8 7 6 5
19 19 17 13 11 8 5 3 2 3 3 3 3 4 5 4 5 6 8 9 9 10 9 8 7 7 6 5 5 6 7 8 9 9 10 11 10 11 12 13 14 17 19 20 22 24 21 18 18 18 17 17 17 17 17 17 17 17 17 18 19 18 16 15 13 11 11 10 9 8 7 8 9 9 10 11 11 11 10 10 10 10 9 8 6
21 21 18 13 11 9 6 4 3 3 4 4 4 5 4 3 3 3 4 6 7 8 8 9 9 8 8 7 6 6 6 7 7 7 9 10 9 9 10 12 13 15 18 20 22 21 20 20 19 18 17 17 17 17 18 17 18 18 17 18 20 20 18 18 16 14 13 12 10 9 9 9 9 10 10 11 11 12 11 11 11 11 11 10 8
24 22 19 14 11 9 7 5 3 3 4 4 5 5 5 3 2 2 3 3 4 3 3 4 4 5 6 6 7 7 7 8 8 7 8 9 9 9 10 11 13 14 13 14 18 16 14 16 16 15 15 14 12 13 17 18 19 18 16 16 18 19 20 20 18 16 15 14 12 11 11 10 11 11 10 10 11 12 12 12 12 12 11 11 10
27 24 20 15 12 10 7 5 3 4 4 5 5 5 4 3 4 5 5 4 3 3 3 3 2 1 2 3 5 6 7 8 9 9 8 8 9 11 12 14 13 12 8 6 11 13 12 10 10 12 14 13 12 12 15 18 19 19 16 16 17 17 18 19 19 18 16 15 15 14 14 13 12 11 12 13 13 13 13 13 13 13 12 12 11
29 26 21 17 13 10 8 5 4 4 5 6 5 5 4 4 6 7 7 7 6 6 6 6 5 4 4 4 4 5 6 7 8 8 9 8 8 9 11 13 13 11 9 8 7 9 12 11 11 13 15 15 15 15 14 14 17 19 18 17 16 16 17 19 20 20 19 18 17 17 16 15 14 12 13 15 16 16 14 13 13 14 14 13 13
31 27 23 18 15 12 9 7 6 5 7 7 7 7 8 8 7 7 8 7 7 7 7 8 7 7 6 6 6 5 4 5 6 6 7 7 7 8 7 8 9 8 7 8 7 6 10 11 12 14 15 16 16 16 15 15 16 18 18 17 16 16 17 18 19 20 20 20 20 19 18 17 16 14 14 15 16 16 16 15 14 14 14 14 14
32 29 25 21 18 15 11 8 7 7 8 9 10 10 10 10 9 8 8 6 6 7 8 8 8 8 8 8 9 8 7 4 2 3 4 5 6 7 6 5 5 4 3 3 5 6 7 8 8 11 13 14 16 16 16 17 16 15 15 15 15 15 15 16 18 18 17 19 20 20 19 19 18 17 16 17 16 16 16 16 16 15 15 15 15
35 31 27 24 20 16 11 8 9 9 9 11 13 13 11 11 10 9 8 7 7 6 6 7 8 9 9 9 11 11 10 8 6 3 1 2 4 5 6 5 5 4 3 2 3 4 5 4 5 9 11 11 13 15 15 14 13 12 13 14 12 11 14 16 17 15 14 15 17 18 19 19 19 18 18 19 19 18 18 17 16 16 16 16 16
37 34 29 25 21 17 12 10 10 11 11 12 14 14 12 11 10 9 8 8 9 7 5 5 6 8 8 9 10 11 11 11 9 7 5 2 0 2 3 4 5 5 4 3 3 4 5 4 4 7 9 8 9 11 11 11 10 11 12 14 13 12 15 18 17 15 13 13 13 13 15 15 16 16 16 17 18 18 18 18 18 18 17 17 18
39 35 31 27 23 19 14 11 11 12 12 13 14 14 13 11 9 8 7 8 9 7 5 4 5 6 7 8 9 10 10 11 11 10 8 6 4 2 1 0 2 3 3 3 4 3 4 4 3 4 5 6 6 7 8 8 8 8 8 11 13 12 14 16 18 18 17 15 12 10 9 10 11 12 13 14 15 15 16 16 17 18 18 18 19
41 37 34 30 26 21 17 13 13 13 13 13 14 14 13 12 10 9 7 7 8 6 4 4 4 4 5 6 7 8 9 10 10 10 10 9 8 7 5 4 3 3 2 2 3 3 3 4 4 4 4 5 5 6 7 7 7 7 7 7 9 9 9 10 13 14 16 18 17 15 14 14 13 13 14 16 17 17 18 17 17 17 18 19 19
42 40 37 33 28 24 19 16 16 15 13 13 14 13 13 12 11 11 9 7 7 7 5 4 3 3 3 4 5 6 6 7 8 9 9 10 9 9 9 7 6 5 4 3 3 2 3 4 5 5 6 6 6 7 7 8 8 8 8 8 8 7 7 7 6 7 10 14 16 17 19 20 20 18 18 18 18 19 20 20 20 19 18 18 19
44 42 39 34 30 26 22 20 19 17 15 14 14 13 13 14 14 12 11 9 8 9 8 6 4 3 3 3 3 3 3 5 6 7 8 8 8 8 8 7 6 5 5 4 3 3 3 4 4 5 6 6 7 8 8 9 10 10 11 11 11 10 9 9 7 7 9 10 13 14 15 17 20 22 21 20 20 20 21 21 22 22 20 19 19
45 43 40 36 32 28 25 23 21 19 17 16 15 14 14 16 16 14 12 11 10 9 8 7 5 4 3 2 2 1 1 2 3 5 5 6 6 6 6 5 5 4 3 3 2 3 3 4 4 5 6 7 7 8 9 9 10 11 12 12 12 12 11 11 10 10 10 11 12 15 15 15 18 21 22 21 21 21 21 21 22 23 23 22 21
Wind_Direction
170 167 163 159 164 167 167 167 163 160 154 152 152 151 151 149 145 138 133 130 128 128 129 125 126 129 132 139 143 147 149 148 146 147 147 145 144 144 144 143 141 140 141 141 142 140 138 139 139 137 137 138 130 122 123 123 119 111 111 115 114 114 121 130 134 136 134 131 129 127 125 121 118 115 112 108 104 99 96 92 87 82 79 75 71
169 165 161 157 164 167 170 168 164 163 156 152 151 152 152 150 145 138 137 134 132 131 129 124 122 124 129 134 138 143 145 147 147 148 145 143 140 137 135 134 135 136 142 147 154 157 153 153 152 154 155 149 139 133 133 131 125 120 121 122 119 119 125 132 139 142 137 134 134 132 128 122 119 116 112 108 104 99 96 92 88 84 81 77 73
168 162 158 156 162 166 172 172 166 165 159 153 151 153 153 151 145 139 137 136 137 135 130 124 122 121 127 134 137 141 143 145 145 145 141 137 133 127 120 116 116 119 126 137 150 158 157 160 165 172 169 152 142 142 143 140 135 130 131 129 125 124 128 134 143 146 139 138 139 136 131 125 121 118 114 110 105 101 96 92 87 84 81 77 72
169 158 157 157 161 165 173 175 170 168 162 155 152 153 155 153 145 140 135 136 140 136 132 126 125 121 125 133 136 139 142 144 143 142 138 132 127 119 112 106 102 102 108 117 127 141 149 163 172 171 171 160 148 148 149 148 144 136 138 140 131 128 131 135 145 149 143 141 139 137 133 128 125 122 119 114 109 104 99 93 88 84 80 75 69
167 158 157 155 159 164 171 175 174 172 166 158 154 155 157 155 147 143 135 134 138 137 134 129 128 125 127 133 138 141 141 142 142 141 137 131 126 120 111 104 100 95 97 105 110 118 132 159 167 156 162 166 154 151 151 152 149 139 144 148 135 129 131 134 143 148 148 144 139 136 134 132 130 128 124 120 115 109 103 96 90 84 80 74 68
164 158 155 154 157 162 169 174 175 174 169 162 157 157 160 159 152 146 140 136 140 141 138 132 129 129 130 132 139 144 144 142 141 139 138 135 131 123 111 103 99 95 93 98 103 106 119 150 158 149 159 167 157 152 151 152 149 140 147 149 136 128 129 133 138 143 148 144 137 134 133 135 135 134 131 126 121 116 110 100 92 85 79 71 65
162 158 154 155 155 158 168 171 173 174 171 165 160 160 162 163 158 151 146 142 142 143 140 135 130 131 132 134 139 146 149 147 143 141 140 139 135 128 117 106 96 96 97 99 102 105 117 142 153 150 161 165 156 152 150 152 149 141 147 148 134 127 128 129 133 138 142 138 135 134 133 135 137 137 135 134 129 123 117 106 97 88 79 69 60
162 158 153 154 154 157 166 168 170 173 172 169 165 162 163 167 164 158 153 149 146 145 143 140 134 133 134 137 141 144 152 152 149 149 147 143 139 134 125 113 101 100 103 108 111 109 120 142 157 154 160 161 154 152 150 151 148 141 144 146 132 125 127 127 130 133 133 134 135 133 132 134 136 137 136 137 134 129 122 111 101 90 81 71 61
161 158 155 154 155 159 163 164 168 170 171 171 169 165 164 168 170 166 162 158 152 149 147 144 140 137 137 141 143 145 151 153 155 157 152 148 148 145 135 124 111 105 106 116 119 118 125 141 160 152 154 158 152 151 151 151 145 138 139 140 131 124 126 128 130 131 129 133 137 134 134 136 136 136 136 137 135 133 125 114 104 94 85 73 63
163 159 157 157 157 161 162 163 168 169 170 172 173 170 167 169 173 173 171 168 161 156 152 149 145 142 143 145 144 147 150 148 154 156 152 151 153 150 144 133 119 109 107 118 123 123 130 140 161 153 152 156 150 148 148 148 144 137 132 131 128 124 124 127 129 130 132 136 141 140 137 138 137 136 136 136 136 134 127 118 108 101 92 78 65
164 162 159 158 158 161 161 162 169 169 169 172 175 175 172 170 173 179 178 175 170 164 159 156 150 145 147 149 144 147 151 146 147 152 153 150 147 146 146 138 123 114 110 119 124 121 128 138 158 159 156 155 149 148 148 149 147 139 130 126 125 124 123 124 127 130 135 138 143 144 141 141 140 138 138 138 138 136 130 123 116 111 101 88 70
166 166 161 158 159 159 158 161 168 167 167 170 175 178 178 175 175 180 181 180 178 173 168 165 159 150 147 149 146 147 149 147 142 146 152 146 141 146 148 140 127 121 117 124 129 126 130 138 149 160 166 158 151 151 152 153 150 140 131 128 127 127 125 124 127 132 136 140 143 146 148 148 147 142 140 141 140 139 135 130 127 123 114 102 80
168 168 161 158 158 155 155 160 164 163 163 167 174 180 181 180 181 183 184 184 184 181 174 171 168 160 151 148 151 152 151 153 150 145 146 144 148 158 155 144 134 131 128 131 137 136 139 151 159 166 175 167 159 154 154 156 151 142 134 131 130 131 131 128 128 133 136 140 144 147 150 152 151 145 142 144 142 141 140 139 139 133 127 120 94
170 168 161 159 156 151 157 162 162 162 163 166 172 178 181 183 185 187 189 190 191 188 181 179 175 168 160 155 157 160 159 163 165 154 149 150 155 161 157 149 141 142 140 138 146 150 151 164 174 173 176 178 171 159 157 157 151 145 140 135 133 134 136 134 130 130 134 140 145 148 150 154 155 149 146 145 144 144 145 149 149 145 145 143 111
169 167 164 163 158 151 158 165 163 161 163 168 171 175 181 183 186 190 193 196 197 194 189 185 177 170 170 170 164 161 167 174 179 175 166 162 160 158 157 153 149 150 148 143 149 158 165 172 180 178 176 186 184 167 164 160 152 148 145 140 136 135 138 139 135 130 130 136 144 150 152 156 160 154 149 149 149 150 152 159 160 159 163 158 128
169 168 168 169 164 156 158 164 164 163 162 166 171 174 182 184 185 189 194 198 198 197 194 186 176 172 177 182 182 174 173 180 191 192 176 167 167 165 165 163 163 160 155 157 157 162 174 180 183 185 181 187 194 182 175 170 160 152 147 144 140 138 138 140 139 135 130 133 142 152 156 158 164 161 155 154 156 158 161 170 172 171 173 165 138
170 169 170 171 168 160 158 161 165 167 164 162 166 170 177 182 183 186 192 198 198 197 195 189 184 179 180 188 196 192 184 192 203 199 176 166 176 182 181 173 170 167 165 176 175 168 178 187 186 189 190 191 197 196 187 188 175 158 150 146 142 140 138 138 140 142 136 132 137 149 160 163 168 169 165 161 162 166 169 176 179 177 177 167 148
172 170 170 171 166 159 157 159 162 164 162 158 158 161 168 177 182 184 190 197 198 199 195 192 192 185 183 193 200 195 196 207 208 203 193 181 180 191 195 188 179 177 180 190 192 178 178 189 190 190 195 196 198 203 200 201 197 172 155 146 142 141 140 137 137 142 141 135 133 138 153 167 172 175 175 171 170 172 174 179 182 179 177 169 152
174 173 173 173 168 162 161 161 161 156 154 154 157 159 162 171 179 184 189 196 198 199 193 188 191 192 192 196 199 198 206 213 208 212 212 204 186 184 199 206 194 184 184 187 194 192 184 187 192 192 193 195 197 204 207 206 211 196 166 147 142 143 140 138 135 138 142 137 131 124 128 148 168 179 184 183 180 180 181 183 186 182 175 169 154
177 179 178 177 175 172 169 167 165 159 158 156 158 160 160 166 173 180 187 193 194 193 188 182 187 197 197 196 201 204 212 211 211 224 222 222 204 185 198 207 202 193 186 180 183 198 194 187 191 194 191 191 192 198 207 210 216 212 186 156 146 148 144 140 137 137 142 137 130 121 114 114 124 147 179 183 175 181 193 198 197 188 180 171 156
179 183 182 182 181 180 175 169 171 171 170 166 164 161 161 168 170 178 185 189 189 188 186 185 190 195 190 192 205 207 210 206 210 227 226 229 214 196 202 205 211 203 185 182 178 194 198 191 189 193 191 189 189 193 201 209 218 221 212 186 159 157 154 146 140 137 141 140 133 128 122 113 109 112 133 168 170 170 179 205 215 200 192 183 161
179 184 184 184 183 184 180 175 177 179 180 177 174 169 170 175 177 182 186 187 188 188 188 190 194 195 190 192 202 205 207 208 213 226 229 235 218 205 208 209 215 208 191 181 174 189 196 193 189 192 194 190 190 193 196 203 215 224 224 215 188 168 164 157 145 136 137 142 140 137 134 128 121 119 131 168 182 181 174 193 217 220 214 208 193
178 181 183 181 179 181 181 183 183 183 185 186 189 188 188 188 188 191 191 190 191 193 195 196 195 197 196 194 197 204 206 210 221 225 229 236 223 209 209 213 214 213 208 164 156 190 192 192 188 191 198 195 193 196 197 199 209 224 229 225 213 183 174 173 157 138 134 140 145 141 139 140 136 131 140 168 186 194 190 192 209 232 238 233 239
174 175 176 175 174 173 175 181 183 187 192 193 196 199 202 200 200 199 194 195 196 198 202 200 197 200 200 198 196 203 211 212 218 224 231 234 229 225 213 213 212 206 206 158 180 198 190 193 190 191 197 199 199 199 200 199 203 221 230 224 217 197 184 183 174 153 137 138 147 144 143 146 144 143 148 165 182 198 204 202 206 224 245 255 259
169 169 169 169 169 168 170 177 180 187 195 196 197 201 207 207 209 207 200 199 201 201 205 203 203 204 202 205 199 199 211 215 219 229 232 223 230 241 223 211 208 194 190 202 241 219 190 193 192 191 194 201 205 203 203 201 203 215 225 222 216 204 194 189 183 175 157 145 150 145 147 151 149 153 155 159 169 190 208 212 209 216 236 255 262
171 170 169 169 170 172 173 180 187 193 199 202 201 200 206 211 215 215 210 206 205 206 209 208 211 209 205 212 203 194 204 213 224 237 236 218 221 234 221 209 207 193 191 228 266 261 205 193 192 190 192 200 206 207 206 204 205 212 221 220 215 210 203 199 190 184 179 167 162 158 158 164 161 161 165 163 164 177 203 215 215 214 223 240 257
175 172 169 167 169 171 169 174 182 192 203 211 215 209 208 213 217 218 216 212 212 214 215 212 213 212 209 215 209 196 204 213 222 235 240 224 221 225 218 210 205 197 202 233 276 281 231 195 190 189 190 199 205 208 208 207 207 211 219 219 214 213 210 206 198 193 192 189 190 196 196 193 188 187 189 183 182 189 203 219 220 219 221 230 244
175 170 166 162 161 165 166 170 175 186 203 216 230 232 223 218 217 217 214 212 213 215 219 218 218 217 216 220 219 211 211 218 225 238 235 221 220 219 216 214 206 202 211 235 275 289 242 194 187 187 188 196 203 206 209 209 208 208 215 220 215 213 213 208 203 202 204 209 218 229 235 232 225 223 232 226 221 220 228 242 228 226 229 231 238
177 170 165 164 163 175 192 194 199 209 230 239 244 241 235 227 219 216 214 213 214 211 213 218 219 221 223 223 227 225 221 226 232 237 231 220 218 211 210 213 207 204 211 231 253 273 223 180 176 178 183 192 200 204 208 212 211 207 209 217 218 214 215 213 212 214 216 224 232 242 253 260 262 262 274 280 284 281 280 290 282 254 249 249 250
179 176 173 169 166 231 244 239 239 248 268 267 262 250 236 232 224 218 216 216 215 212 209 213 216 218 223 225 229 232 231 238 245 242 231 220 214 204 202 208 206 204 208 219 221 204 151 158 163 167 173 184 193 200 206 211 213 209 206 211 218 217 219 220 221 225 229 238 246 255 262 269 273 275 285 296 304 306 307 307 307 308 297 290 282
184 182 176 164 28 326 282 267 262 268 280 276 271 260 237 233 228 223 222 218 212 212 211 214 218 218 221 224 229 235 239 251 262 263 249 221 211 203 196 204 207 205 204 206 205 193 155 149 157 160 164 172 180 191 201 207 211 211 207 208 216 220 225 227 228 234 242 253 261 265 268 270 273 277 284 292 302 306 311 311 309 313 313 311 310
185 181 176 103 20 356 308 284 280 277 280 280 275 254 225 225 227 226 228 226 215 213 212 215 225 225 225 225 230 239 248 263 274 284 277 227 208 211 205 207 211 207 203 203 204 198 181 166 163 164 167 171 176 185 196 204 210 214 210 210 216 223 228 231 234 242 250 260 266 267 266 267 269 277 285 289 296 300 306 312 313 316 318 316 314
181 181 199 203 46 354 306 290 287 282 278 278 270 223 192 203 219 224 228 234 230 223 216 219 231 236 235 233 237 247 259 274 285 292 277 227 202 213 211 209 214 208 201 200 205 205 197 189 179 177 179 180 182 189 198 204 208 214 215 212 216 223 230 235 240 245 251 257 262 263 260 260 264 271 282 287 291 294 299 307 311 316 321 321 318
193 190 201 205 199 229 275 277 280 279 276 273 255 195 181 187 206 223 234 245 248 242 232 227 233 238 242 242 246 254 265 277 288 291 267 231 208 214 209 208 213 209 202 201 208 213 213 209 203 197 192 191 193 199 205 208 208 210 213 215 219 225 232 236 239 241 246 254 257 258 255 258 264 268 277 283 286 287 291 298 304 310 317 325 325
208 206 205 207 206 213 241 252 261 265 257 245 218 192 193 199 211 223 237 249 254 257 253 247 245 245 250 252 253 258 267 277 282 287 281 249 221 216 211 210 213 212 208 208 212 219 224 226 227 226 220 215 211 209 212 215 214 210 209 214 219 224 228 231 234 238 243 247 248 250 253 259 264 269 274 278 281 283 288 292 295 302 311 322 329
214 216 214 212 207 202 215 230 242 248 229 217 214 209 210 212 220 226 232 240 247 258 265 265 264 260 257 261 264 266 271 276 276 278 273 257 237 222 214 212 214 216 214 214 219 224 225 228 234 233 232 235 229 224 226 224 221 215 213 215 217 222 227 230 235 242 244 247 249 250 254 258 262 267 272 275 277 279 283 288 290 297 306 318 330
218 219 220 218 210 199 195 193 190 196 200 213 225 231 231 221 217 221 225 232 237 245 256 264 268 267 262 265 273 273 272 269 266 265 262 257 246 230 221 217 220 224 223 222 228 232 229 228 234 233 232 232 233 237 238 232 228 225 222 219 220 224 228 232 239 246 249 258 266 263 263 265 265 267 270 273 275 276 277 280 285 290 295 310 332
220 220 223 225 218 204 182 167 170 168 181 203 223 236 240 228 213 216 225 230 234 239 245 251 256 261 264 268 274 280 278 270 265 264 265 262 251 237 229 225 228 234 234 231 236 240 238 234 233 232 236 239 240 245 243 234 231 233 231 226 226 230 233 236 243 247 252 266 276 276 275 274 273 272 272 272 272 273 272 271 276 281 287 300 316
220 218 220 224 220 206 181 165 175 176 181 194 209 221 222 223 221 213 215 223 233 239 246 252 255 259 262 265 267 268 267 268 269 265 262 260 253 243 234 227 224 232 237 233 238 247 241 234 232 231 239 246 246 246 243 237 232 235 237 232 232 236 239 242 245 249 254 264 273 275 277 277 277 278 278 278 274 269 267 266 267 271 280 292 299
219 217 217 218 213 203 184 169 186 192 190 195 199 202 200 204 203 168 162 195 222 231 238 246 254 260 262 266 270 267 260 257 260 261 263 259 251 250 248 241 232 233 239 236 244 259 254 236 229 231 241 245 245 243 241 240 236 237 239 236 235 239 245 247 248 253 258 263 270 272 273 275 277 279 282 286 283 274 266 262 264 266 272 281 287
217 217 216 213 208 203 190 178 198 205 196 197 198 190 184 177 157 133 127 135 130 106 83 79 61 360 314 298 288 284 276 262 255 252 258 264 258 256 254 254 256 255 262 259 248 253 256 235 213 230 249 244 240 242 240 240 241 243 242 241 241 243 249 252 253 257 260 262 267 269 271 272 273 276 280 283 287 286 276 265 262 264 267 272 279
217 216 214 210 207 202 196 199 217 213 194 194 191 165 145 140 136 126 123 120 106 90 79 74 66 51 30 2 338 315 299 284 271 256 250 257 257 258 259 260 269 276 276 282 273 245 241 232 211 227 247 245 243 247 247 246 245 247 246 249 254 255 255 257 259 261 262 262 263 265 268 269 269 273 280 281 283 287 287 278 269 265 266 269 275
218 216 211 207 207 202 198 210 222 210 191 187 179 155 142 136 134 131 125 116 99 88 83 80 75 66 53 39 31 14 345 309 290 273 255 251 247 252 262 265 272 283 281 284 292 260 242 236 221 223 236 243 247 251 254 256 253 249 248 254 266 273 269 265 265 263 264 265 264 265 268 269 269 271 277 281 284 286 288 287 280 272 270 270 274
216 215 210 208 208 203 200 215 222 210 195 182 172 163 152 144 144 141 129 121 112 97 87 81 77 71 63 54 48 42 31 17 334 294 266 254 249 245 248 253 263 279 286 282 279 264 257 254 241 233 236 240 244 248 252 256 255 248 245 252 266 283 284 280 277 267 263 267 266 267 270 272 272 273 277 282 286 287 285 285 283 279 275 273 275
216 215 212 212 210 204 202 216 224 212 197 182 176 175 166 158 158 154 146 143 137 116 94 83 78 71 65 59 53 50 46 46 50 39 347 269 257 246 244 248 255 264 264 262 260 262 269 271 256 249 248 245 244 248 251 255 255 245 240 245 256 276 284 290 292 277 264 265 265 266 267 268 271 273 278 284 286 286 283 281 281 281 280 278 277
218 216 214 214 211 205 203 214 226 214 197 185 183 184 179 173 166 155 148 148 147 137 115 100 86 73 66 62 57 54 54 56 61 62 62 58 312 247 246 252 260 268 269 267 265 268 274 272 252 247 253 256 252 251 250 251 252 245 240 243 245 254 264 277 292 290 278 266 259 260 261 262 266 270 276 283 286 287 284 280 278 278 278 279 280
220 216 213 213 210 207 205 214 228 217 199 192 192 193 191 186 172 154 140 141 151 147 131 122 100 83 72 66 63 59 58 62 68 71 74 77 78 83 99 254 279 286 289 287 285 286 290 286 273 252 248 251 249 246 246 245 244 242 241 243 247 253 257 262 274 284 288 280 263 251 254 258 261 265 271 281 291 297 293 287 285 282 277 276 278
220 217 214 213 212 211 207 213 227 220 207 201 200 203 203 192 177 169 160 150 155 152 146 145 120 101 84 72 69 65 62 67 73 76 77 77 77 78 79 76 64 38 12 345 322 307 297 288 282 274 261 254 249 246 244 242 239 238 238 240 247 254 257 258 265 275 281 282 276 264 260 262 262 267 274 281 289 294 292 290 292 291 283 276 275
221 219 216 213 213 212 208 212 223 223 217 212 207 208 210 199 184 183 182 168 165 173 181 177 152 129 103 83 76 73 71 73 78 83 82 80 77 76 77 78 74 64 50 36 19 339 302 281 271 266 262 257 253 251 249 248 246 246 245 245 248 248 255 262 263 264 269 277 281 277 271 268 266 265 271 278 282 284 284 284 287 292 291 284 280
221 219 216 213 213 211 209 213 220 224 224 220 214 210 212 206 195 192 192 186 184 187 193 196 185 169 148 117 94 87 85 85 87 89 89 87 83 79 78 79 78 71 61 46 25 355 325 304 285 271 263 256 253 252 253 254 253 255 256 258 260 260 262 263 256 258 268 274 280 285 283 278 273 268 268 272 276 278 279 278 279 283 288 290 286
221 220 216 213 214 213 214 216 219 226 227 225 220 214 215 213 202 197 199 199 201 200 198 199 194 180 172 166 156 153 129 106 109 105 100 97 90 82 76 73 74 72 64 53 30 360 341 323 309 293 278 267 260 256 256 259 260 262 264 266 270 272 273 274 270 268 273 276 280 284 286 285 282 277 276 277 276 275 275 275 277 279 282 285 283